Starlink 30359

operational
NORAD ID: 57779 Int'l Des: 2023-134 Owner: SPXS Country: US Constellation: starlink
LEOCIRCULAR

About Starlink 30359

Description loading...

Live Position

Loading 3D Globe...

Upcoming Passes

Altitude History

Altitude vs Time

uPlot chart will show altitude changes over time

Two-Line Element Set

1 57779U 23134J 25306.29037933 .00001316 00000-0 11245-3 0 9997
2 57779 43.0020 157.2353 0001160 272.8993 87.1717 15.02533854120459
Epoch: Nov 2, 2025 • Age: 13 hours

Current Status

Altitude 558.2 km
Velocity 7.58 km/s
Sub-Earth Point 8.57°N, 175.58°W
Launch Date Sep 4, 2023
Age 2.1 years
Type internet

Technical Details

Classification Payload
Mass 730.00 kg
Dry Mass 700.00 kg
Total Mass 730.00 kg
Length 0.30 m
Diameter 4.10 m
Span 29.00 m
Shape Box + pan
Manufacturer SPXS
Bus Type Starlink V2M
Phase Status In Orbit
Owner/State SPXS/US

Large Constellations

Loading constellations...